Find OneWeb SL0157

NORAD ID: 48055 Int'l Des: 2021-025 Owner: ONEWEBN Country: UK Constellation: oneweb operational
別名: ONEWEB-0157 spacetrack, celestrak
LEOCIRCULARPOLARONEWEB_TYPE

現在のビュー

3D地球を読み込み中...

About OneWeb SL0157

OneWeb SL0157 (NORAD 48055) is a oneweb constellation satellite launched Mar 25, 2021 by ONEWEBN of UK. It operates in LEO, CIRCULAR, POLAR, ONEWEB_TYPE orbit with a mass of 148.00 kg.

次回通過

Passes for default location (London). Set your location on the main map for personalized predictions.

高度履歴

Loading altitude history...

軌道要素

1 48055U 21025P 26265.12778517 -.00000354 00000-0 -10051-2 0 9994
2 48055 87.8911 300.9352 0001517 99.6576 260.4725 13.13470526266299
Epoch: Sep 22, 2026 • Age: 15 hours

現在のステータス

高度 1222.3 km
遠地点 / 近地点 N/A
速度 7.25 km/s
衛星直下点 81.95°N, 42.55°E
打ち上げ日 Mar 25, 2021
運用期間 5.4 years
タイプ internet

技術仕様

分類 Payload
質量 148.00 kg
乾燥質量 140.00 kg
長さ 1.30 m
直径 1.00 m
スパン 5.00 m
形状 ? Trapezoid+2 pan
製造者 ONEWUS
バスタイプ ARROW
フェーズステータス In Orbit
所有者/国 ONEWEBN/UK

Most Searched